Location: Morisset
(33.1080°S, 151.4871°E)
Time: 08:58:44
(UTC+00:00)

Delta 2 Rocket - Pass Details

Date: 29 October 2020
Orbit: 415 x 806 km, 35.6° (Epoch: 27 November)

Event Time Altitude Azimuth Distance (km) Brightness Sun altitude
Exits shadow 17:53:12 13° 257° (WSW) 1,728 5.4 -13.2°
Maximum altitude 17:57:03 61° 178° (S) 630 3.7 -12.5°
Drops below altitude 10° 18:00:57 10° 97° (E) 1,716 7.1 -11.7°
Sets 18:03:03 0° 92° (E) 2,542 8.1 -11.3°
